Location: Amherst
(42.3800°N, 72.5240°W)
Time: 11:48:12
(UTC-04:00)

ISS - Pass Details

Date: 18 May 2021
Orbit: 417 x 422 km, 51.6° (Epoch: 14 June)

Event Time Altitude Azimuth Distance (km) Brightness Sun altitude
Rises 01:30:52 0° 307° (NW) 2,372 0.4 -27.2°
Reaches altitude 10° 01:33:08 10° 318° (NW) 1,506 -0.5 -27.1°
Enters shadow 01:34:02 16° 328° (NNW) 1,199 -1.0 -27.1°
